| time (UTC) | temp C | wind direction | speed KPH | gust KPH | rain 1hr cm | rain 24hr cm | rain mn cm | humidity % | barometer mb |
| 20260508141508 | 15 | 2 | 4.8 | 11.3 | 0.00 | 0.00 | 0.00 | 48 | 970.8 |
| 20260508140007 | 14 | 2 | 6.4 | 11.3 | 0.00 | 0.00 | 0.00 | 48 | 970.9 |
| 20260508134601 | 13 | 1 | 6.4 | 11.3 | 0.00 | 0.00 | 0.00 | 49 | 971.0 |
| 20260508133108 | 12 | 2 | 4.8 | 9.7 | 0.00 | 0.00 | 0.00 | 49 | 971.0 |
| 20260508131600 | 11 | 1 | 6.4 | 8.0 | 0.00 | 0.00 | 0.00 | 49 | 971.0 |
| 20260508130048 | 10 | 1 | 4.8 | 9.7 | 0.00 | 0.00 | 0.00 | 50 | 970.9 |
| 20260508124545 | 9 | 1 | 4.8 | 8.0 | 0.00 | 0.00 | 0.00 | 51 | 970.8 |
| 20260508123044 | 8 | 4 | 1.6 | 4.8 | 0.00 | 0.00 | 0.00 | 53 | 970.9 |
| 20260508121544 | 7 | 360 | 0.0 | 3.2 | 0.00 | 0.00 | 0.00 | 54 | 970.8 |
| 20260508120045 | 6 | 1 | 0.0 | 3.2 | 0.00 | 0.00 | 0.00 | 57 | 970.8 |
| 20260508114541 | 6 | 1 | 0.0 | 4.8 | 0.00 | 0.00 | 0.00 | 54 | 970.8 |
| 20260508113040 | 6 | 2 | 1.6 | 4.8 | 0.00 | 0.00 | 0.00 | 53 | 970.8 |
| 20260508111540 | 6 | 2 | 3.2 | 8.0 | 0.00 | 0.00 | 0.00 | 51 | 970.9 |
| 20260508110038 | 6 | 1 | 0.0 | 3.2 | 0.00 | 0.00 | 0.00 | 53 | 970.8 |
| 20260508104540 | 6 | 1 | 0.0 | 3.2 | 0.00 | 0.00 | 0.00 | 52 | 970.7 |
| 20260508103039 | 6 | 1 | 0.0 | 1.6 | 0.00 | 0.00 | 0.00 | 52 | 970.7 |
| 20260508101543 | 6 | 1 | 0.0 | 1.6 | 0.00 | 0.00 | 0.00 | 52 | 970.9 |
| 20260508100037 | 6 | 1 | 0.0 | 1.6 | 0.00 | 0.00 | 0.00 | 52 | 970.8 |
| 20260508094535 | 6 | 1 | 0.0 | 0.0 | 0.00 | 0.00 | 0.00 | 51 | 970.9 |
| 20260508093037 | 6 | 1 | 0.0 | 3.2 | 0.00 | 0.00 | 0.00 | 50 | 970.8 |
| 20260508091534 | 6 | 10 | 0.0 | 0.0 | 0.00 | 0.00 | 0.00 | 51 | 970.8 |
| 20260508090037 | 6 | 10 | 0.0 | 3.2 | 0.00 | 0.00 | 0.00 | 49 | 970.9 |
| 20260508084532 | 7 | 10 | 0.0 | 3.2 | 0.00 | 0.00 | 0.00 | 49 | 970.8 |
| 20260508083033 | 7 | 10 | 0.0 | 1.6 | 0.00 | 0.00 | 0.00 | 49 | 970.9 |
| 20260508081531 | 7 | 10 | 0.0 | 0.0 | 0.00 | 0.00 | 0.00 | 49 | 970.9 |
| 20260508080050 | 7 | 10 | 0.0 | 0.0 | 0.00 | 0.00 | 0.00 | 49 | 971.1 |
| 20260508074527 | 7 | 10 | 0.0 | 0.0 | 0.00 | 0.00 | 0.00 | 49 | 971.2 |
| 20260508073028 | 6 | 10 | 0.0 | 0.0 | 0.00 | 0.00 | 0.00 | 50 | 971.2 |
| 20260508071527 | 6 | 10 | 0.0 | 0.0 | 0.00 | 0.00 | 0.00 | 51 | 971.3 |
| 20260508070026 | 6 | 10 | 0.0 | 4.8 | 0.00 | 0.00 | 0.00 | 51 | 971.3 |
| 20260508064537 | 7 | 10 | 0.0 | 4.8 | 0.00 | 0.00 | 0.00 | 51 | 971.5 |
| 20260508063018 | 7 | 10 | 3.2 | 8.0 | 0.00 | 0.00 | 0.00 | 50 | 971.5 |
| 20260508061519 | 8 | 360 | 3.2 | 4.8 | 0.00 | 0.00 | 0.00 | 49 | 971.6 |
| 20260508060013 | 8 | 360 | 3.2 | 6.4 | 0.00 | 0.00 | 0.00 | 47 | 971.7 |
| 20260508054521 | 8 | 360 | 1.6 | 3.2 | 0.00 | 0.00 | 0.00 | 46 | 971.7 |
| 20260508053011 | 8 | 360 | 0.0 | 1.6 | 0.00 | 0.00 | 0.00 | 45 | 971.9 |
| 20260508051507 | 8 | 10 | 0.0 | 3.2 | 0.00 | 0.00 | 0.00 | 47 | 972.1 |
| 20260508050123 | 8 | 360 | 0.0 | 3.2 | 0.00 | 0.00 | 0.00 | 48 | 972.2 |
| 20260508044504 | 10 | 360 | 0.0 | 0.0 | 0.00 | 0.00 | 0.00 | 45 | 972.1 |
| 20260508043004 | 10 | 360 | 0.0 | 3.2 | 0.00 | 0.00 | 0.00 | 43 | 972.1 |
| 20260508041504 | 11 | 360 | 0.0 | 0.0 | 0.00 | 0.00 | 0.00 | 42 | 972.0 |
| 20260508040010 | 12 | 9 | 0.0 | 4.8 | 0.00 | 0.00 | 0.00 | 38 | 972.0 |
| 20260508034502 | 12 | 360 | 1.6 | 3.2 | 0.00 | 0.00 | 0.00 | 39 | 972.0 |
| 20260508033004 | 12 | 360 | 0.0 | 0.0 | 0.00 | 0.00 | 0.00 | 40 | 972.1 |
| 20260508031601 | 12 | 360 | 0.0 | 3.2 | 0.00 | 0.00 | 0.00 | 38 | 971.9 |
| 20260508024559 | 13 | 360 | 1.6 | 6.4 | 0.00 | 0.00 | 0.00 | 37 | 971.6 |
| 20260508023059 | 13 | 360 | 0.0 | 4.8 | 0.00 | 0.00 | 0.00 | 37 | 971.4 |
| 20260508021559 | 13 | 360 | 0.0 | 4.8 | 0.00 | 0.00 | 0.00 | 36 | 971.3 |
| 20260508020100 | 13 | 360 | 0.0 | 3.2 | 0.00 | 0.00 | 0.00 | 36 | 971.0 |
| 20260508014558 | 13 | 360 | 0.0 | 3.2 | 0.00 | 0.00 | 0.00 | 35 | 970.7 |
| 20260508013057 | 15 | 360 | 0.0 | 4.8 | 0.00 | 0.00 | 0.00 | 34 | 970.6 |
| 20260508011557 | 15 | 360 | 0.0 | 4.8 | 0.00 | 0.00 | 0.00 | 33 | 970.3 |
| 20260508010057 | 16 | 360 | 1.6 | 6.4 | 0.00 | 0.00 | 0.00 | 32 | 970.3 |
| 20260508004558 | 17 | 6 | 1.6 | 4.8 | 0.00 | 0.00 | 0.00 | 31 | 970.1 |
| 20260508003055 | 17 | 6 | 0.0 | 4.8 | 0.00 | 0.00 | 0.00 | 33 | 970.0 |
| 20260508001555 | 18 | 6 | 0.0 | 8.0 | 0.00 | 0.00 | 0.00 | 32 | 969.9 |
| 20260508000058 | 18 | 5 | 3.2 | 12.9 | 0.00 | 0.00 | 0.00 | 30 | 969.9 |
| 20260507234557 | 18 | 5 | 8.0 | 17.7 | 0.00 | 0.00 | 0.00 | 28 | 969.8 |
| 20260507233111 | 18 | 5 | 6.4 | 20.9 | 0.00 | 0.00 | 0.00 | 31 | 969.9 |
| 20260507231550 | 18 | 6 | 4.8 | 16.1 | 0.00 | 0.00 | 0.00 | 32 | 970.0 |
| 20260507230051 | 18 | 5 | 0.0 | 6.4 | 0.00 | 0.00 | 0.00 | 32 | 969.9 |
| 20260507224548 | 18 | 7 | 1.6 | 11.3 | 0.00 | 0.00 | 0.00 | 32 | 970.1 |
| 20260507223057 | 18 | 5 | 3.2 | 20.9 | 0.00 | 0.00 | 0.00 | 34 | 970.2 |
| 20260507221545 | 18 | 6 | 9.7 | 17.7 | 0.00 | 0.00 | 0.00 | 32 | 970.2 |
| 20260507220042 | 18 | 6 | 3.2 | 14.5 | 0.00 | 0.00 | 0.00 | 37 | 970.3 |
| 20260507214544 | 17 | 6 | 4.8 | 9.7 | 0.00 | 0.00 | 0.00 | 37 | 970.5 |
| 20260507213042 | 17 | 6 | 3.2 | 8.0 | 0.00 | 0.00 | 0.00 | 35 | 970.8 |
| 20260507211547 | 17 | 6 | 4.8 | 9.7 | 0.00 | 0.00 | 0.00 | 37 | 970.8 |
| 20260507210054 | 17 | 5 | 4.8 | 20.9 | 0.00 | 0.00 | 0.00 | 38 | 970.8 |
| 20260507204543 | 17 | 4 | 8.0 | 22.5 | 0.00 | 0.00 | 0.00 | 36 | 971.1 |
| 20260507203037 | 18 | 5 | 9.7 | 20.9 | 0.00 | 0.00 | 0.00 | 34 | 971.1 |
| 20260507201530 | 17 | 5 | 1.6 | 25.7 | 0.00 | 0.00 | 0.00 | 42 | 971.3 |
| 20260507200031 | 16 | 1 | 3.2 | 22.5 | 0.00 | 0.00 | 0.00 | 41 | 971.5 |
| 20260507194540 | 17 | 5 | 9.7 | 24.1 | 0.00 | 0.00 | 0.00 | 38 | 971.6 |
| 20260507193028 | 17 | 4 | 6.4 | 16.1 | 0.00 | 0.00 | 0.00 | 38 | 971.7 |
| 20260507191525 | 16 | 4 | 12.9 | 20.9 | 0.00 | 0.00 | 0.00 | 37 | 971.7 |
| 20260507190037 | 16 | 4 | 1.6 | 12.9 | 0.00 | 0.00 | 0.00 | 40 | 971.7 |
| 20260507184532 | 16 | 6 | 11.3 | 22.5 | 0.00 | 0.00 | 0.00 | 38 | 971.6 |
| 20260507183021 | 16 | 5 | 8.0 | 24.1 | 0.00 | 0.00 | 0.00 | 39 | 971.7 |
| 20260507181519 | 16 | 6 | 4.8 | 20.9 | 0.00 | 0.00 | 0.00 | 40 | 971.8 |
| 20260507180020 | 16 | 4 | 14.5 | 25.7 | 0.00 | 0.00 | 0.00 | 40 | 971.9 |
| 20260507174518 | 15 | 4 | 8.0 | 22.5 | 0.00 | 0.00 | 0.00 | 42 | 972.1 |
| 20260507173034 | 16 | 5 | 6.4 | 24.1 | 0.00 | 0.00 | 0.00 | 41 | 972.2 |
| 20260507171513 | 15 | 4 | 6.4 | 17.7 | 0.00 | 0.00 | 0.00 | 43 | 972.4 |
| 20260507170019 | 15 | 5 | 9.7 | 27.4 | 0.00 | 0.00 | 0.00 | 41 | 972.4 |
| 20260507164520 | 15 | 4 | 14.5 | 22.5 | 0.00 | 0.00 | 0.00 | 41 | 972.5 |
| 20260507163009 | 15 | 4 | 14.5 | 25.7 | 0.00 | 0.00 | 0.00 | 42 | 972.5 |
| 20260507161508 | 15 | 6 | 12.9 | 29.0 | 0.00 | 0.00 | 0.00 | 44 | 972.6 |
| 20260507160006 | 14 | 5 | 16.1 | 30.6 | 0.00 | 0.00 | 0.00 | 45 | 972.6 |
| 20260507154505 | 13 | 5 | 12.9 | 27.4 | 0.00 | 0.00 | 0.00 | 44 | 972.7 |
| 20260507153002 | 13 | 4 | 11.3 | 25.7 | 0.00 | 0.00 | 0.00 | 45 | 972.6 |
| 20260507151600 | 13 | 5 | 14.5 | 25.7 | 0.00 | 0.00 | 0.00 | 45 | 972.4 |
| 20260507150058 | 13 | 4 | 12.9 | 29.0 | 0.00 | 0.00 | 0.00 | 45 | 972.4 |
| 20260507144555 | 12 | 4 | 19.3 | 30.6 | 0.00 | 0.00 | 0.00 | 48 | 972.5 |
| 20260507143152 | 12 | 4 | 19.3 | 29.0 | 0.00 | 0.00 | 0.00 | 48 | 972.6 |